NOZ822 ENBR-EKCH

Flight info

Callsign NOZ822
Flight time 1h 7m
Altitude 35000
Route TUXIL DCT ZOL DCT TESPI
Aircraft B38M/M-SDE1FGHILORVWXY/HB1

Departure

Time 2026-04-21 18:30
Airport Bergen Airport, Flesland (ENBR)

Arrival

Time 2026-04-21 19:37
Airport Copenhagen Kastrup Airport (EKCH)
Time Latitude Longitude Altitude Speed Heading
2026-04-21 18:09 60.28892 5.22543 175 ft 0 kts 83°
2026-04-21 18:23 60.28890 5.22503 174 ft 4 kts 83°
2026-04-21 18:23 60.28888 5.22452 171 ft 4 kts 105°
2026-04-21 18:24 60.28902 5.22414 170 ft 4 kts 153°
2026-04-21 18:24 60.28919 5.22402 169 ft 1 kts 170°
2026-04-21 18:24 60.28922 5.22401 169 ft 0 kts 170°
2026-04-21 18:26 60.28916 5.22403 169 ft 2 kts 170°
2026-04-21 18:27 60.28897 5.22410 169 ft 4 kts 170°
2026-04-21 18:27 60.28850 5.22426 169 ft 11 kts 170°
2026-04-21 18:27 60.28758 5.22457 168 ft 15 kts 171°
2026-04-21 18:27 60.28629 5.22500 168 ft 21 kts 170°
2026-04-21 18:28 60.28479 5.22550 166 ft 23 kts 171°
2026-04-21 18:28 60.28359 5.22590 161 ft 14 kts 171°
2026-04-21 18:28 60.28295 5.22535 160 ft 12 kts 242°
2026-04-21 18:28 60.28278 5.22341 156 ft 16 kts 261°
2026-04-21 18:29 60.28283 5.22196 159 ft 8 kts 310°
2026-04-21 18:29 60.28331 5.22155 161 ft 10 kts 349°
2026-04-21 18:29 60.28599 5.22066 165 ft 78 kts 350°
2026-04-21 18:29 60.29384 5.21801 158 ft 148 kts 351°
2026-04-21 18:30 60.30495 5.21511 700 ft 166 kts 352°
2026-04-21 18:30 60.31657 5.21190 1664 ft 165 kts 350°
2026-04-21 18:30 60.32859 5.20765 2243 ft 186 kts 350°
2026-04-21 18:30 60.34197 5.20297 2854 ft 205 kts 350°
2026-04-21 18:31 60.35668 5.19786 3448 ft 224 kts 351°
2026-04-21 18:31 60.37271 5.19174 4018 ft 245 kts 343°
2026-04-21 18:31 60.38782 5.17348 4638 ft 263 kts 314°
2026-04-21 18:31 60.39680 5.14171 5656 ft 264 kts 286°
2026-04-21 18:32 60.39763 5.10451 6559 ft 270 kts 261°
2026-04-21 18:32 60.39082 5.06890 7429 ft 276 kts 237°
2026-04-21 18:32 60.37714 5.04189 8324 ft 280 kts 211°
2026-04-21 18:32 60.35869 5.02945 9233 ft 283 kts 187°
2026-04-21 18:33 60.33897 5.02532 10102 ft 287 kts 187°
2026-04-21 18:33 60.31898 5.02059 10847 ft 294 kts 187°
2026-04-21 18:33 60.30523 5.01724 11130 ft 307 kts 187°
2026-04-21 18:33 60.28328 5.01208 11475 ft 328 kts 184°
2026-04-21 18:34 60.26006 5.01682 11905 ft 343 kts 168°
2026-04-21 18:34 60.22844 5.02921 12704 ft 357 kts 169°
2026-04-21 18:34 60.20389 5.03879 13463 ft 361 kts 169°
2026-04-21 18:34 60.17928 5.04846 14272 ft 365 kts 169°
2026-04-21 18:35 60.16231 5.05576 14747 ft 368 kts 164°
2026-04-21 18:35 60.13849 5.07502 15535 ft 370 kts 156°
2026-04-21 18:35 60.11472 5.09555 16275 ft 374 kts 157°
2026-04-21 18:35 60.09113 5.11814 17027 ft 378 kts 148°
2026-04-21 18:36 60.06997 5.14950 17807 ft 380 kts 142°
2026-04-21 18:36 60.04902 5.18130 18502 ft 384 kts 143°
2026-04-21 18:36 60.02756 5.21350 19172 ft 387 kts 143°
2026-04-21 18:36 60.00595 5.24570 19880 ft 388 kts 144°
2026-04-21 18:37 59.98424 5.27796 20492 ft 391 kts 144°
2026-04-21 18:37 59.96228 5.31048 21096 ft 394 kts 144°
2026-04-21 18:37 59.94012 5.34326 21629 ft 399 kts 145°
2026-04-21 18:37 59.91771 5.37633 22238 ft 402 kts 145°
2026-04-21 18:38 59.89514 5.40958 22833 ft 405 kts 145°
2026-04-21 18:38 59.87244 5.44298 23444 ft 408 kts 146°
2026-04-21 18:38 59.84954 5.47662 24028 ft 410 kts 146°
2026-04-21 18:38 59.82649 5.51041 24502 ft 413 kts 146°
2026-04-21 18:39 59.80328 5.54438 24968 ft 416 kts 146°
2026-04-21 18:39 59.77991 5.57852 25417 ft 419 kts 146°
2026-04-21 18:39 59.75634 5.61289 25785 ft 422 kts 146°
2026-04-21 18:39 59.73291 5.64700 26491 ft 417 kts 146°
2026-04-21 18:40 59.70953 5.68099 27044 ft 417 kts 146°
2026-04-21 18:40 59.68585 5.71533 27182 ft 427 kts 146°
2026-04-21 18:40 59.66168 5.75032 27531 ft 431 kts 146°
2026-04-21 18:40 59.63746 5.78531 27971 ft 433 kts 146°
2026-04-21 18:41 59.61302 5.82057 28346 ft 436 kts 146°
2026-04-21 18:41 59.58843 5.85596 28753 ft 439 kts 146°
2026-04-21 18:41 59.56368 5.89154 29145 ft 441 kts 147°
2026-04-21 18:41 59.53879 5.92724 29530 ft 444 kts 147°
2026-04-21 18:42 59.51374 5.96313 29908 ft 447 kts 147°
2026-04-21 18:42 59.48852 5.99916 30252 ft 449 kts 147°
2026-04-21 18:42 59.46348 6.03487 30587 ft 452 kts 147°
2026-04-21 18:42 59.43770 6.07160 30979 ft 451 kts 146°
2026-04-21 18:43 59.41265 6.10722 31432 ft 450 kts 146°
2026-04-21 18:43 59.38728 6.14321 31821 ft 450 kts 146°
2026-04-21 18:43 59.36186 6.17920 32227 ft 450 kts 146°
2026-04-21 18:43 59.33645 6.21511 32627 ft 450 kts 146°
2026-04-21 18:44 59.31103 6.25098 33022 ft 450 kts 146°
2026-04-21 18:44 59.28560 6.28678 33394 ft 450 kts 145°
2026-04-21 18:44 59.26019 6.32250 33779 ft 450 kts 145°
2026-04-21 18:44 59.23477 6.35814 34166 ft 450 kts 145°
2026-04-21 18:45 59.20932 6.39378 34535 ft 450 kts 145°
2026-04-21 18:45 59.18386 6.42936 34833 ft 450 kts 145°
2026-04-21 18:45 59.15835 6.46493 35085 ft 452 kts 144°
2026-04-21 18:45 59.13276 6.50055 35381 ft 452 kts 145°
2026-04-21 18:46 59.10714 6.53615 35473 ft 453 kts 144°
2026-04-21 18:46 59.05599 6.60702 35463 ft 450 kts 145°
2026-04-21 18:47 59.00490 6.67754 35468 ft 451 kts 145°
2026-04-21 18:47 58.95379 6.74783 35458 ft 450 kts 145°
2026-04-21 18:48 58.90328 6.81705 35459 ft 443 kts 145°
2026-04-21 18:48 58.85293 6.88579 35461 ft 443 kts 145°
2026-04-21 18:49 58.80259 6.95427 35453 ft 442 kts 145°
2026-04-21 18:49 58.76080 7.01093 35450 ft 442 kts 145°
2026-04-21 18:50 58.70192 7.09046 35447 ft 442 kts 145°
2026-04-21 18:50 58.65155 7.15824 35449 ft 442 kts 145°
2026-04-21 18:51 58.60117 7.22578 35437 ft 442 kts 145°
2026-04-21 18:51 58.55076 7.29314 35431 ft 442 kts 145°
2026-04-21 18:52 58.50023 7.36039 35430 ft 442 kts 145°
2026-04-21 18:52 58.45000 7.42704 35423 ft 443 kts 145°
2026-04-21 18:53 58.39942 7.49390 35414 ft 443 kts 145°
2026-04-21 18:53 58.34856 7.56087 35409 ft 445 kts 145°
2026-04-21 18:54 58.29760 7.62775 35405 ft 445 kts 145°
2026-04-21 18:54 58.24658 7.69447 35405 ft 445 kts 145°
2026-04-21 18:55 58.20389 7.75012 35402 ft 444 kts 145°
2026-04-21 18:55 58.14477 7.82690 35403 ft 443 kts 145°
2026-04-21 18:56 58.09383 7.89282 35402 ft 443 kts 145°
2026-04-21 18:56 58.04294 7.95842 35403 ft 443 kts 145°
2026-04-21 18:57 57.99186 8.02406 35405 ft 445 kts 145°
2026-04-21 18:57 57.94058 8.08971 35413 ft 446 kts 145°
2026-04-21 18:58 57.88930 8.15513 35406 ft 445 kts 145°
2026-04-21 18:58 57.83804 8.22032 35413 ft 445 kts 145°
2026-04-21 18:59 57.78673 8.28531 35407 ft 445 kts 145°
2026-04-21 18:59 57.73543 8.35007 35411 ft 445 kts 145°
2026-04-21 19:00 57.68405 8.41473 35412 ft 445 kts 145°
2026-04-21 19:00 57.63268 8.47915 35423 ft 445 kts 144°
2026-04-21 19:01 57.58119 8.54346 35415 ft 446 kts 144°
2026-04-21 19:01 57.52958 8.60772 35412 ft 446 kts 145°
2026-04-21 19:02 57.47795 8.67178 35410 ft 446 kts 145°
2026-04-21 19:02 57.42628 8.73567 35411 ft 446 kts 145°
2026-04-21 19:03 57.37459 8.79936 35415 ft 446 kts 145°
2026-04-21 19:03 57.32285 8.86291 35420 ft 446 kts 145°
2026-04-21 19:04 57.27150 8.92575 35409 ft 445 kts 145°
2026-04-21 19:04 57.21972 8.98891 35413 ft 447 kts 144°
2026-04-21 19:05 57.16770 9.05213 35410 ft 448 kts 144°
2026-04-21 19:05 57.11563 9.11520 35410 ft 448 kts 144°
2026-04-21 19:06 57.06353 9.17809 35411 ft 448 kts 144°
2026-04-21 19:06 57.01145 9.24076 35412 ft 447 kts 144°
2026-04-21 19:07 56.95945 9.30311 35413 ft 446 kts 144°
2026-04-21 19:07 56.90745 9.36524 35410 ft 446 kts 144°
2026-04-21 19:08 56.85541 9.42723 35417 ft 447 kts 144°
2026-04-21 19:08 56.80316 9.48924 35412 ft 448 kts 144°
2026-04-21 19:09 56.75080 9.55117 35406 ft 448 kts 144°
2026-04-21 19:09 56.69845 9.61289 35402 ft 448 kts 144°
2026-04-21 19:10 56.64650 9.67393 35397 ft 448 kts 144°
2026-04-21 19:10 56.59417 9.73521 35399 ft 448 kts 144°
2026-04-21 19:11 56.54181 9.79633 35391 ft 448 kts 144°
2026-04-21 19:11 56.48942 9.85727 35406 ft 448 kts 144°
2026-04-21 19:12 56.44544 9.90829 35401 ft 449 kts 144°
2026-04-21 19:12 56.38431 9.97894 35386 ft 448 kts 144°
2026-04-21 19:13 56.33174 10.03948 35392 ft 448 kts 144°
2026-04-21 19:13 56.27925 10.09974 34692 ft 447 kts 144°
2026-04-21 19:13 56.25286 10.12996 33657 ft 453 kts 144°
2026-04-21 19:14 56.22619 10.16045 32687 ft 456 kts 144°
2026-04-21 19:14 56.19946 10.19095 31950 ft 454 kts 143°
2026-04-21 19:14 56.17297 10.22112 31359 ft 449 kts 143°
2026-04-21 19:14 56.14680 10.25090 30826 ft 443 kts 143°
2026-04-21 19:15 56.12091 10.28031 30183 ft 439 kts 143°
2026-04-21 19:15 56.09524 10.30939 29558 ft 434 kts 142°
2026-04-21 19:15 56.06989 10.33808 28973 ft 429 kts 142°
2026-04-21 19:15 56.04484 10.36639 28416 ft 423 kts 142°
2026-04-21 19:16 56.02005 10.39437 27855 ft 419 kts 142°
2026-04-21 19:16 55.99555 10.42198 27312 ft 414 kts 142°
2026-04-21 19:16 55.97131 10.44925 26771 ft 410 kts 142°
2026-04-21 19:16 55.94725 10.47627 26237 ft 407 kts 142°
2026-04-21 19:17 55.90586 10.54072 25035 ft 389 kts 118°
2026-04-21 19:17 55.89397 10.58315 24565 ft 378 kts 105°
2026-04-21 19:17 55.88784 10.62814 24106 ft 371 kts 98°
2026-04-21 19:18 55.88300 10.67316 23535 ft 370 kts 102°
2026-04-21 19:18 55.87674 10.71728 23012 ft 366 kts 101°
2026-04-21 19:18 55.87132 10.76128 22399 ft 363 kts 96°
2026-04-21 19:18 55.87019 10.80630 21509 ft 367 kts 87°
2026-04-21 19:19 55.87035 10.85172 20919 ft 366 kts 89°
2026-04-21 19:19 55.87024 10.89677 20469 ft 361 kts 89°
2026-04-21 19:19 55.87000 10.94130 20002 ft 358 kts 89°
2026-04-21 19:19 55.86970 10.98547 19536 ft 355 kts 89°
2026-04-21 19:20 55.86936 11.02868 19082 ft 353 kts 89°
2026-04-21 19:20 55.86899 11.07222 18621 ft 350 kts 90°
2026-04-21 19:20 55.86861 11.11541 18121 ft 348 kts 90°
2026-04-21 19:20 55.86821 11.15830 17662 ft 345 kts 90°
2026-04-21 19:21 55.86780 11.20074 17228 ft 341 kts 90°
2026-04-21 19:21 55.86738 11.24273 16804 ft 337 kts 90°
2026-04-21 19:21 55.86696 11.28425 16391 ft 334 kts 90°
2026-04-21 19:21 55.86652 11.32542 15988 ft 331 kts 90°
2026-04-21 19:22 55.86608 11.36597 15723 ft 324 kts 89°
2026-04-21 19:22 55.86564 11.40536 15640 ft 311 kts 89°
2026-04-21 19:22 55.86520 11.44317 15460 ft 302 kts 89°
2026-04-21 19:22 55.86475 11.48104 14927 ft 311 kts 90°
2026-04-21 19:23 55.86426 11.51998 14481 ft 317 kts 90°
2026-04-21 19:23 55.86376 11.55935 14096 ft 318 kts 90°
2026-04-21 19:23 55.86326 11.59865 13697 ft 316 kts 90°
2026-04-21 19:23 55.86275 11.63723 13467 ft 308 kts 90°
2026-04-21 19:24 55.86242 11.66218 13344 ft 302 kts 90°
2026-04-21 19:24 55.86192 11.69893 13180 ft 292 kts 90°
2026-04-21 19:24 55.86142 11.73453 13040 ft 283 kts 90°
2026-04-21 19:24 55.86093 11.76899 12901 ft 275 kts 90°
2026-04-21 19:25 55.86044 11.80282 12652 ft 273 kts 90°
2026-04-21 19:25 55.85993 11.83671 12187 ft 274 kts 90°
2026-04-21 19:25 55.85942 11.87032 11748 ft 271 kts 90°
2026-04-21 19:25 55.85891 11.90385 11423 ft 270 kts 90°
2026-04-21 19:26 55.85839 11.93725 11117 ft 269 kts 90°
2026-04-21 19:26 55.85785 11.97043 10809 ft 267 kts 90°
2026-04-21 19:26 55.85732 12.00337 10510 ft 266 kts 90°
2026-04-21 19:26 55.85677 12.03625 10204 ft 265 kts 90°
2026-04-21 19:27 55.85623 12.06897 9879 ft 264 kts 90°
2026-04-21 19:27 55.85567 12.10159 9572 ft 264 kts 90°
2026-04-21 19:27 55.85511 12.13417 9286 ft 263 kts 90°
2026-04-21 19:27 55.85453 12.16663 8978 ft 262 kts 90°
2026-04-21 19:28 55.85395 12.19891 8688 ft 261 kts 90°
2026-04-21 19:28 55.85337 12.23115 8400 ft 260 kts 90°
2026-04-21 19:28 55.85278 12.26327 8113 ft 259 kts 90°
2026-04-21 19:28 55.85219 12.29522 7828 ft 258 kts 90°
2026-04-21 19:29 55.85159 12.32713 7543 ft 257 kts 90°
2026-04-21 19:29 55.85098 12.35893 7259 ft 257 kts 90°
2026-04-21 19:29 55.85037 12.39057 6978 ft 256 kts 90°
2026-04-21 19:29 55.84975 12.42215 6686 ft 255 kts 90°
2026-04-21 19:30 55.84912 12.45358 6390 ft 254 kts 90°
2026-04-21 19:30 55.84849 12.48486 6102 ft 252 kts 90°
2026-04-21 19:30 55.84667 12.51575 5836 ft 252 kts 100°
2026-04-21 19:30 55.84169 12.54552 5566 ft 250 kts 104°
2026-04-21 19:31 55.83621 12.57485 5278 ft 249 kts 105°
2026-04-21 19:31 55.83074 12.60376 5096 ft 244 kts 105°
2026-04-21 19:31 55.82537 12.63200 4892 ft 239 kts 105°
2026-04-21 19:31 55.82011 12.65975 4645 ft 236 kts 105°
2026-04-21 19:32 55.81492 12.68734 4374 ft 234 kts 105°
2026-04-21 19:32 55.80983 12.71463 4130 ft 231 kts 105°
2026-04-21 19:32 55.80483 12.74162 3882 ft 229 kts 105°
2026-04-21 19:32 55.79994 12.76826 3667 ft 225 kts 105°
2026-04-21 19:33 55.79675 12.78567 3522 ft 222 kts 105°
2026-04-21 19:33 55.78466 12.81469 3192 ft 224 kts 148°
2026-04-21 19:33 55.76996 12.82183 3012 ft 219 kts 183°
2026-04-21 19:33 55.75532 12.81749 2895 ft 209 kts 194°
2026-04-21 19:34 55.74144 12.81152 2798 ft 202 kts 195°
2026-04-21 19:34 55.72782 12.80561 2688 ft 200 kts 195°
2026-04-21 19:34 55.71449 12.79966 2494 ft 195 kts 200°
2026-04-21 19:34 55.70265 12.78848 2175 ft 192 kts 221°
2026-04-21 19:35 55.69276 12.77281 1877 ft 190 kts 227°
2026-04-21 19:35 55.67358 12.74232 1356 ft 172 kts 225°
2026-04-21 19:35 55.66499 12.72899 1115 ft 157 kts 225°
2026-04-21 19:36 55.65687 12.71637 870 ft 154 kts 224°
2026-04-21 19:36 55.64912 12.70424 657 ft 145 kts 224°
2026-04-21 19:36 55.64161 12.69273 446 ft 141 kts 221°
2026-04-21 19:36 55.63428 12.68139 302 ft 140 kts 221°
2026-04-21 19:37 55.62693 12.66991 113 ft 140 kts 220°
2026-04-21 19:37 55.62003 12.65926 21 ft 121 kts 220°
2026-04-21 19:37 55.61556 12.65233 19 ft 50 kts 221°
2026-04-21 19:37 55.61349 12.64902 21 ft 28 kts 229°
2026-04-21 19:38 55.61255 12.64624 20 ft 24 kts 251°
2026-04-21 19:38 55.61199 12.64338 20 ft 25 kts 251°
2026-04-21 19:38 55.61219 12.64114 19 ft 19 kts 330°
2026-04-21 19:38 55.61335 12.64177 19 ft 19 kts 32°
2026-04-21 19:39 55.61456 12.64316 20 ft 22 kts 33°
2026-04-21 19:39 55.61581 12.64461 20 ft 22 kts 33°
2026-04-21 19:39 55.61703 12.64568 19 ft 17 kts
2026-04-21 19:39 55.61832 12.64528 20 ft 20 kts 352°
2026-04-21 19:40 55.61953 12.64489 20 ft 17 kts 349°
2026-04-21 19:40 55.62080 12.64447 19 ft 20 kts 349°
2026-04-21 19:40 55.62210 12.64404 19 ft 16 kts 344°
2026-04-21 19:40 55.62289 12.64253 17 ft 19 kts 303°
2026-04-21 19:41 55.62367 12.64039 19 ft 22 kts 304°
2026-04-21 19:41 55.62442 12.63846 18 ft 17 kts 307°
2026-04-21 19:41 55.62546 12.63769 20 ft 18 kts 357°
2026-04-21 19:41 55.62656 12.63823 21 ft 15 kts 32°
2026-04-21 19:42 55.62747 12.63928 20 ft 13 kts 33°
2026-04-21 19:42 55.62810 12.64013 20 ft 9 kts 57°
2026-04-21 19:42 55.62797 12.64116 21 ft 9 kts 122°
2026-04-21 19:42 55.62784 12.64150 19 ft 0 kts 123°